[[{"header":{"parameterUnit":"m.s-1","parameterCategory":2,"la1":30.2991,"la2":30.254,"lo1":-89.0895,"lo2":-89.0444,"dy":0.0017,"dx":0.0017,"nx":28,"ny":28,"refTime":"2025-07-20T21:00:00:Z","depth":"0","parameterNumber":2,"parameterNumberName":"U-component_of_CURRENTS"},"data":[0,0,0,0,0,0,0,0,0,0,0,0,0,0,0,0,0,0,0,0,0,0,0,0,0,0,0,0,0,0,0,0,0,0,0,0,0,0,0,0,0,0,0,0,0,0,0,0,0,0,0,0,0,0,0,0,0,0,0.4249,0.425,0,0.4275,0.4275,0.4274,0.4206,0.4204,0.4203,0.4202,0.4155,0.4155,0.4155,0,0,0,0,0,0,0,0,0,0,0,0,0,0.4243,0.4242,0.4248,0.425,0.4251,0.4275,0.4275,0.4274,0.4206,0.4204,0.4203,0.4201,0.4155,0.4155,0.4155,0,0,0,0,0,0,0,0,0,0,0,0,0,0.4247,0.4242,0.4248,0.4226,0.4225,0.4275,0.4275,0.4274,0.4206,0.4204,0.4202,0.42,0.4155,0.4155,0.4155,0.4196,0,0,0.4155,0.4155,0,0,0,0,0,0,0,0,0.4247,0.4246,0.4228,0.4228,0.4226,0.4242,0.4256,0.4247,0.4207,0.4205,0.4202,0.4199,0.4184,0.4182,0.418,0.4194,0.4192,0.4155,0.4155,0.4155,0.4155,0,0,0,0,0,0,0,0.4246,0.4245,0.425,0.423,0.4229,0.4251,0.4247,0.4254,0.4198,0.4205,0.4202,0.4219,0.4182,0.418,0.4179,0.4191,0.4155,0.4155,0.4155,0.4155,0.4302,0.4306,0,0,0,0,0,0,0.4257,0.4245,0.425,0.4252,0.4241,0.4253,0.4248,0.4232,0.4199,0.4195,0.422,0.4216,0.4181,0.4179,0.4177,0.4268,0.4155,0.4155,0.4155,0.4299,0.4303,0.4307,0,0,0,0,0,0,0.4256,0.4256,0.4249,0.4258,0.4259,0.4255,0.4238,0.4234,0.4236,0.4214,0.4206,0.4227,0.418,0.4177,0.4215,0.4263,0.4155,0.4155,0.4294,0.43,0.4305,0.4422,0,0,0,0,0,0,0.4255,0.4254,0.4254,0.4257,0.426,0.4286,0.4241,0.4237,0.4254,0.4247,0.4218,0.421,0.4178,0.4216,0.4215,0.4261,0.4155,0.4289,0.4297,0.4304,0.4413,0.4431,0.4446,0,0,0,0,0,0.4254,0.4279,0.4253,0.4255,0.4255,0.4288,0.4291,0.4276,0.4256,0.4267,0.4266,0.4211,0.4261,0.4219,0.4217,0.4265,0.4286,0.4295,0.4303,0.4405,0.4427,0.4446,0,0,0,0,0,0,0.4275,0.4275,0.4246,0.4265,0.4274,0.428,0.4307,0.4292,0.43,0.4296,0.4259,0.4254,0.4311,0.4284,0.4238,0.4335,0.4266,0.4275,0.4345,0.4365,0.4381,0.4392,0.4155,0,0,0,0,0,0.428,0.4292,0.4291,0.4305,0.4315,0.4309,0.4325,0.4312,0.4323,0.4322,0.4309,0.4314,0.435,0.4351,0.4369,0.4415,0.4432,0.445,0.4466,0.448,0.4493,0.4581,0.4606,0.4336,0.4336,0.4336,0,0,0.4296,0.4297,0.4304,0.4311,0.4316,0.4352,0.4311,0.4343,0.4376,0.432,0.4365,0.4374,0.4381,0.444,0.4462,0.4417,0.4573,0.4491,0.4502,0.4508,0.4593,0.4619,0.4642,0.4342,0.4341,0.434,0,0,0.4341,0.433,0.4353,0.4369,0.4388,0.4398,0.4412,0.4423,0.4428,0.447,0.4465,0.4512,0.4524,0.456,0.4576,0.47,0.4667,0.4699,0.4775,0.4861,0.4884,0.4903,0.4981,0.5006,0.4694,0.4695,0.4695,0,0.4348,0.4361,0.4371,0.44,0.4426,0.4424,0.4461,0.4489,0.4511,0.4541,0.4495,0.4591,0.4588,0.4701,0.4742,0.4736,0.4773,0.4691,0.4881,0.4901,0.4919,0.4993,0.502,0.4701,0.4701,0.47,0.4699,0,0.4413,0.4416,0.4443,0.447,0.4515,0.4544,0.4588,0.4635,0.4638,0.4652,0.4743,0.4755,0.4806,0.4826,0.4813,0.4958,0.4941,0.49,0.4823,0.4953,0.5024,0.505,0.4711,0.4709,0.4707,0.4705,0,0,0.4391,0.4465,0.4459,0.4482,0.4542,0.4585,0.4683,0.4756,0.4832,0.4842,0.493,0.4995,0.4989,0.5013,0.5019,0.5087,0.5252,0.5048,0.5049,0.5112,0.5449,0.5252,0.526,0.524,0.5244,0.5248,0.5453,0,0.4403,0.4461,0.4511,0.4582,0.4612,0.4681,0.4779,0.4864,0.4918,0.5011,0.5045,0.5125,0.5066,0.5105,0.5168,0.5241,0.5322,0.52,0.5324,0.5328,0.5126,0.5284,0.4987,0.5128,0.5478,0.5482,0.5485,0,0.4404,0.4448,0.4508,0.4624,0.4652,0.4723,0.4886,0.4976,0.5124,0.5166,0.5245,0.5267,0.5394,0.5308,0.5483,0.5406,0.5445,0.5479,0.5487,0.5275,0.5178,0.5053,0.5161,0.5022,0.5524,0.5521,0.5518,0,0.4345,0.4434,0.4482,0.4513,0.4662,0.4739,0.4846,0.5011,0.5107,0.5278,0.5346,0.5466,0.553,0.5611,0.5639,0.5594,0.5808,0.5752,0.5619,0.5607,0.5362,0.5317,0.533,0.589,0.589,0.5889,0.5889,0,0.431,0.4353,0.446,0.4486,0.4611,0.4726,0.4881,0.5017,0.5188,0.5309,0.5414,0.5506,0.5607,0.5705,0.5731,0.5743,0.5883,0.5672,0.5657,0.5394,0.5351,0.5219,0.5172,0.5897,0.5895,0.5894,0.5892,0,0.4267,0.43,0.438,0.4523,0.4576,0.4685,0.49,0.5005,0.5181,0.535,0.5407,0.558,0.5681,0.575,0.5894,0.5835,0.571,0.5855,0.5525,0.5463,0.5139,0.5108,0.4976,0.4844,0.5762,0.5758,0.5755,0,0.428,0.4295,0.4405,0.4446,0.452,0.4675,0.4773,0.4981,0.5101,0.5369,0.5441,0.5588,0.5628,0.5748,0.5685,0.5702,0.5575,0.5452,0.529,0.5107,0.5068,0.4923,0.4813,0.505,0.5042,0.5035,0.5029,0,0.4337,0.4339,0.4395,0.4444,0.4527,0.4644,0.4808,0.4889,0.5126,0.5242,0.5384,0.5434,0.5495,0.5331,0.5327,0.5305,0.5147,0.5303,0.5221,0.4599,0.4343,0.4208,0.4945,0.4967,0.4973,0.4978,0.4981,0.4984,0.4389,0.4412,0.4415,0.4454,0.4527,0.4581,0.4605,0.4747,0.4866,0.494,0.5156,0.5073,0.5031,0.4929,0.49,0.4616,0.4694,0.4447,0.4465,0.4368,0.409,0.4669,0.4583,0.4586,0.459,0.4593,0.4595,0,0.4434,0.4408,0.4431,0.4426,0.4414,0.4488,0.4581,0.4529,0.4536,0.4606,0.4627,0.4453,0.4278,0.422,0.4013,0.3838,0.3711,0.3724,0.3489,0.3456,0.4068,0.388,0.3503,0.3503,0.3503,0.3504,0.3504,0.3504,0.4454,0.442,0.4359,0.4279,0.4266,0.4179,0.4164,0.4094,0.4084,0.3866,0.3683,0.3663,0.3734,0.3636,0.3394,0.3301,0.3103,0.2882,0.3,0.3453,0.3522,0.3588,0.3401,0.293,0.2929,0.2195,0.2189,0.2185]},{"header":{"parameterUnit":"m.s-1","parameterCategory":2,"la1":30.2991,"la2":30.254,"lo1":-89.0895,"lo2":-89.0444,"dy":0.0017,"dx":0.0017,"nx":28,"ny":28,"refTime":"2025-07-20T21:00:00:Z","depth":"0","parameterNumber":3,"parameterNumberName":"V-component_of_CURRENTS"},"data":[0,0,0,0,0,0,0,0,0,0,0,0,0,0,0,0,0,0,0,0,0,0,0,0,0,0,0,0,0,0,0,0,0,0,0,0,0,0,0,0,0,0,0,0,0,0,0,0,0,0,0,0,0,0,0,0,0,0,0.0436,0.0435,0,0.0371,0.037,0.037,0.0317,0.0316,0.0316,0.0316,0.0237,0.0235,0.0233,0,0,0,0,0,0,0,0,0,0,0,0,0,0.0489,0.0488,0.0436,0.0435,0.0435,0.0372,0.037,0.0369,0.0317,0.0316,0.0316,0.0316,0.0237,0.0235,0.0233,0,0,0,0,0,0,0,0,0,0,0,0,0,0.0447,0.0488,0.0436,0.0403,0.04,0.0372,0.037,0.0369,0.0317,0.0316,0.0316,0.0316,0.0238,0.0236,0.0233,0.0225,0,0,0.0224,0.0223,0,0,0,0,0,0,0,0,0.0449,0.0444,0.0408,0.0405,0.0401,0.0354,0.036,0.0321,0.0317,0.0345,0.0316,0.0315,0.0277,0.0271,0.0256,0.0221,0.0218,0.0224,0.0223,0.0221,0.0221,0,0,0,0,0,0,0,0.0452,0.0447,0.0408,0.0408,0.0404,0.0383,0.0377,0.0352,0.0312,0.0343,0.034,0.0337,0.0274,0.0259,0.0254,0.0217,0.0224,0.0222,0.022,0.0219,0.0181,0.0181,0,0,0,0,0,0,0.0467,0.045,0.041,0.0406,0.0428,0.0383,0.0375,0.0367,0.0312,0.0305,0.0337,0.0335,0.0264,0.0257,0.0251,0.0265,0.0221,0.0219,0.0217,0.018,0.0181,0.0181,0,0,0,0,0,0,0.0469,0.0464,0.0412,0.0429,0.0421,0.0383,0.0374,0.0367,0.0354,0.0309,0.03,0.0334,0.0263,0.0255,0.0234,0.0261,0.0218,0.0215,0.0179,0.018,0.0181,0.0276,0,0,0,0,0,0,0.047,0.0465,0.0467,0.043,0.0421,0.0407,0.0375,0.0366,0.0354,0.035,0.0303,0.0295,0.0262,0.0238,0.0231,0.0256,0.0213,0.0178,0.018,0.0181,0.0273,0.0281,0.0287,0,0,0,0,0,0.0472,0.0491,0.0467,0.0463,0.0424,0.0408,0.0402,0.0371,0.0355,0.0357,0.0321,0.0297,0.0241,0.0236,0.0228,0.0253,0.0178,0.0179,0.0181,0.0269,0.0279,0.0287,0,0,0,0,0,0,0.052,0.0487,0.046,0.0467,0.044,0.0401,0.0407,0.0379,0.0352,0.0349,0.0301,0.029,0.0284,0.0252,0.0248,0.0244,0.0207,0.0207,0.0277,0.0286,0.0293,0.0337,0.0211,0,0,0,0,0,0.0529,0.0531,0.049,0.0495,0.0487,0.0445,0.0436,0.0412,0.0383,0.037,0.0335,0.0303,0.0282,0.0271,0.0244,0.0241,0.0238,0.0251,0.0258,0.0265,0.0294,0.0319,0.0333,0.0186,0.0186,0.0186,0,0,0.055,0.0531,0.0532,0.0505,0.0483,0.0485,0.0438,0.0433,0.0437,0.0367,0.0365,0.0327,0.0286,0.0283,0.0277,0.026,0.0301,0.0267,0.0273,0.0299,0.0322,0.0337,0.035,0.0187,0.0187,0.0187,0,0,0.0602,0.0575,0.0595,0.0574,0.0548,0.0524,0.0526,0.0488,0.0474,0.0456,0.0417,0.0403,0.0353,0.0346,0.0331,0.0366,0.0339,0.0344,0.0421,0.0444,0.0458,0.0469,0.0472,0.0483,0.035,0.035,0.035,0,0.0624,0.0637,0.0599,0.0609,0.0607,0.0548,0.057,0.0549,0.0507,0.0512,0.0468,0.0439,0.0393,0.0423,0.0422,0.0388,0.0385,0.0392,0.0458,0.0469,0.048,0.048,0.0491,0.0354,0.0354,0.0353,0.0353,0,0.0688,0.069,0.0704,0.0694,0.069,0.0697,0.0664,0.0662,0.0631,0.0605,0.0614,0.0559,0.055,0.0525,0.0475,0.053,0.0498,0.0466,0.0444,0.0501,0.0496,0.0506,0.0361,0.036,0.0358,0.0357,0,0,0.074,0.0748,0.0747,0.0758,0.0733,0.074,0.0761,0.0765,0.08,0.0745,0.0799,0.0738,0.0711,0.0695,0.0647,0.0654,0.0698,0.059,0.0589,0.0609,0.074,0.0664,0.0666,0.0677,0.0679,0.0681,0.0703,0,0.0792,0.0839,0.0828,0.087,0.089,0.0859,0.0892,0.0889,0.0875,0.091,0.0867,0.0888,0.0776,0.0789,0.0776,0.0735,0.0731,0.0695,0.0669,0.0668,0.0607,0.0678,0.0633,0.0645,0.0713,0.0715,0.0716,0,0.0846,0.0871,0.0927,0.0966,0.0977,0.0999,0.1053,0.1077,0.1103,0.1099,0.1107,0.107,0.1085,0.0981,0.0947,0.0927,0.0842,0.0791,0.079,0.07,0.0612,0.0599,0.066,0.0496,0.0731,0.073,0.0729,0,0.0894,0.0936,0.0989,0.0993,0.1032,0.1069,0.1103,0.1135,0.1187,0.1241,0.1295,0.1273,0.1308,0.121,0.1072,0.1023,0.1031,0.0952,0.0802,0.0794,0.0744,0.0728,0.0662,0.093,0.0929,0.0929,0.0929,0,0.0941,0.0978,0.1018,0.1039,0.1134,0.1139,0.1242,0.1276,0.1353,0.1456,0.1407,0.1501,0.1369,0.1337,0.1168,0.1031,0.1105,0.0845,0.0811,0.077,0.0757,0.06,0.0495,0.093,0.093,0.093,0.093,0,0.0976,0.0994,0.1061,0.1123,0.1153,0.1225,0.1334,0.1415,0.148,0.1629,0.1666,0.1704,0.1678,0.1509,0.1387,0.1182,0.0929,0.0958,0.0906,0.0864,0.0536,0.0438,0.0341,0.0271,0.0808,0.0807,0.0805,0,0.1004,0.1037,0.1123,0.1184,0.1214,0.1315,0.1397,0.1475,0.1573,0.1761,0.1855,0.1892,0.1934,0.1716,0.1386,0.1104,0.0919,0.0842,0.0727,0.054,0.0407,0.034,0.0284,0.0694,0.0691,0.069,0.0688,0,0.106,0.1082,0.1135,0.1256,0.1348,0.1467,0.1591,0.1688,0.182,0.197,0.2169,0.2233,0.2028,0.1748,0.1338,0.1116,0.0703,0.0794,0.0637,0.0351,0.0244,0.0152,0.0639,0.0673,0.0675,0.0676,0.0677,0.0677,0.1108,0.1152,0.1222,0.1336,0.1456,0.1616,0.1733,0.1891,0.2093,0.2333,0.2376,0.2492,0.2046,0.1498,0.1189,0.0565,0.0593,0.0352,0.0262,0.0224,0.0115,0.0552,0.0516,0.0516,0.0517,0.0517,0.0518,0,0.1166,0.1207,0.1307,0.1449,0.1589,0.1646,0.1861,0.2005,0.2268,0.2464,0.263,0.2424,0.1897,0.1337,0.0495,0.0099,-0.0021,-0.01,-0.0193,-0.0215,0.0212,0.0163,0.0005,0.0006,0.0006,0.0006,0.0006,0.0006,0.1203,0.1278,0.131,0.1527,0.1643,0.1847,0.198,0.2218,0.2394,0.2609,0.2629,0.2616,0.2134,0.0754,-0.0138,-0.0324,-0.056,-0.0647,-0.0719,-0.0443,-0.0407,-0.0373,-0.0442,-0.0723,-0.0724,-0.1102,-0.1107,-0.111]}],[{"header":{"parameterUnit":"m.s-1","parameterCategory":2,"la1":30.2991,"la2":30.254,"lo1":-89.0895,"lo2":-89.0444,"dy":0.0017,"dx":0.0017,"nx":28,"ny":28,"refTime":"2025-07-20T21:00:00:Z","depth":"2","parameterNumber":2,"parameterNumberName":"U-component_of_CURRENTS"},"data":[0,0,0,0,0,0,0,0,0,0,0,0,0,0,0,0,0,0,0,0,0,0,0,0,0,0,0,0,0,0,0,0,0,0,0,0,0,0,0,0,0,0,0,0,0,0,0,0,0,0,0,0,0,0,0,0,0,0,0.3024,0.3023,0,0.3008,0.3009,0.3011,0.3043,0.3043,0.3042,0.3042,0.2998,0.2997,0.2996,0,0,0,0,0,0,0,0,0,0,0,0,0,0.2969,0.2972,0.3024,0.3023,0.3021,0.3008,0.301,0.3011,0.3043,0.3043,0.3042,0.3042,0.2998,0.2997,0.2996,0,0,0,0,0,0,0,0,0,0,0,0,0,0.2993,0.2973,0.3025,0.3024,0.3022,0.3008,0.301,0.3011,0.3044,0.3043,0.3042,0.3042,0.2998,0.2997,0.2996,0.3002,0,0,0.2992,0.2992,0,0,0,0,0,0,0,0,0.2992,0.2997,0.3025,0.3023,0.3022,0.3013,0.2972,0.3001,0.3044,0.3053,0.3042,0.3041,0.299,0.2989,0.3012,0.3,0.2998,0.2992,0.2992,0.2991,0.2991,0,0,0,0,0,0,0,0.299,0.2997,0.3035,0.3023,0.3021,0.2983,0.2989,0.2979,0.3037,0.3052,0.305,0.3022,0.2991,0.3013,0.301,0.2997,0.2992,0.2991,0.2991,0.299,0.3099,0.3102,0,0,0,0,0,0,0.2966,0.2997,0.3035,0.3033,0.2986,0.2984,0.2991,0.303,0.3038,0.3034,0.3023,0.3024,0.3015,0.3012,0.3009,0.3084,0.2991,0.299,0.2989,0.3095,0.31,0.3104,0,0,0,0,0,0,0.2967,0.2973,0.3035,0.2996,0.2999,0.2985,0.3028,0.3029,0.3076,0.3013,0.3012,0.3068,0.3015,0.301,0.3027,0.3079,0.299,0.2989,0.3091,0.3097,0.3102,0.3189,0,0,0,0,0,0,0.2967,0.2975,0.3018,0.2997,0.3,0.3056,0.3027,0.3029,0.3049,0.3052,0.3051,0.3045,0.3014,0.3029,0.3026,0.3076,0.2988,0.3087,0.3094,0.31,0.3181,0.3196,0.3209,0,0,0,0,0,0.2966,0.2995,0.3023,0.3026,0.3056,0.3056,0.3059,0.3053,0.3052,0.3092,0.3083,0.3046,0.307,0.303,0.3025,0.3076,0.3083,0.3092,0.31,0.3175,0.3194,0.3209,0,0,0,0,0,0,0.2989,0.2999,0.3029,0.3065,0.308,0.3056,0.3071,0.3076,0.3107,0.3106,0.3072,0.3066,0.3106,0.3088,0.3045,0.3136,0.308,0.3087,0.3139,0.3156,0.317,0.3149,0.2987,0,0,0,0,0,0.3017,0.3045,0.3058,0.3086,0.3104,0.3107,0.3111,0.3112,0.3109,0.3126,0.3118,0.3122,0.3136,0.3141,0.3145,0.3181,0.32,0.3222,0.3236,0.3248,0.3234,0.3385,0.3411,0.313,0.313,0.313,0,0,0.3013,0.303,0.304,0.3092,0.3107,0.3134,0.3115,0.3127,0.3153,0.3111,0.3158,0.3164,0.3158,0.3202,0.3221,0.3191,0.3331,0.3258,0.3268,0.3246,0.3397,0.3424,0.3448,0.3136,0.3135,0.3134,0,0,0.3001,0.307,0.3091,0.3121,0.3143,0.3156,0.3171,0.3187,0.3215,0.3247,0.3236,0.327,0.3286,0.3297,0.3302,0.3399,0.3402,0.3425,0.3472,0.3621,0.3645,0.3666,0.3687,0.3709,0.3432,0.3433,0.3433,0,0.3026,0.3052,0.3093,0.3128,0.313,0.3175,0.3192,0.3241,0.3256,0.3283,0.3272,0.334,0.3328,0.339,0.3422,0.3426,0.3484,0.34,0.3638,0.366,0.3681,0.3697,0.3721,0.3438,0.3437,0.3437,0.3436,0,0.3005,0.3061,0.3073,0.3147,0.3169,0.3188,0.3238,0.3298,0.3329,0.3363,0.3441,0.3446,0.3489,0.3508,0.348,0.3624,0.3606,0.3639,0.3589,0.3714,0.3723,0.3746,0.3445,0.3443,0.3442,0.3441,0,0,0.3002,0.3056,0.3069,0.3108,0.3176,0.3192,0.3262,0.3335,0.3395,0.3459,0.3546,0.3573,0.3607,0.3616,0.3624,0.3726,0.3891,0.3747,0.3753,0.3751,0.4163,0.3985,0.3992,0.4006,0.4012,0.4016,0.4095,0,0.2998,0.3041,0.3056,0.3113,0.3154,0.3213,0.3282,0.3358,0.342,0.3539,0.3608,0.3697,0.3649,0.3694,0.3794,0.3897,0.3965,0.386,0.4054,0.4056,0.3874,0.4019,0.3698,0.3732,0.4118,0.4121,0.4124,0,0.2987,0.3018,0.3048,0.3129,0.3153,0.3197,0.3299,0.3379,0.3552,0.3612,0.3719,0.378,0.3927,0.3894,0.4097,0.4056,0.4098,0.415,0.4157,0.3972,0.3924,0.368,0.3759,0.4163,0.4159,0.4157,0.4154,0,0.2956,0.3025,0.304,0.3064,0.316,0.3197,0.3286,0.3412,0.3504,0.3707,0.38,0.3946,0.4091,0.4197,0.4266,0.4235,0.4491,0.4468,0.4311,0.4294,0.4039,0.3991,0.4597,0.4597,0.4597,0.4597,0.4597,0,0.2948,0.2996,0.3043,0.3061,0.3134,0.3213,0.3318,0.3428,0.3605,0.3725,0.3877,0.3967,0.4203,0.4342,0.4355,0.4404,0.4572,0.4323,0.4335,0.4052,0.4007,0.4397,0.4373,0.46,0.4599,0.4598,0.4598,0,0.2945,0.2977,0.3007,0.3072,0.3128,0.3194,0.337,0.3449,0.3638,0.3807,0.3895,0.4111,0.4268,0.4394,0.4585,0.4524,0.4572,0.4525,0.4106,0.4066,0.4229,0.4209,0.436,0.4355,0.4351,0.4348,0.4345,0,0.2964,0.2959,0.2997,0.3035,0.3079,0.3204,0.33,0.3478,0.355,0.382,0.3894,0.4125,0.4187,0.4389,0.4356,0.4357,0.4479,0.4044,0.3899,0.4223,0.4222,0.4208,0.4193,0.358,0.3571,0.3564,0.3558,0,0.2955,0.2935,0.2942,0.3008,0.3083,0.3159,0.3301,0.3345,0.3543,0.3662,0.3801,0.3887,0.4058,0.3935,0.3973,0.3913,0.4021,0.3887,0.445,0.3673,0.3492,0.3487,0.35,0.3493,0.35,0.3504,0.3508,0.351,0.2922,0.2918,0.2901,0.297,0.3051,0.308,0.3095,0.3191,0.3273,0.3369,0.3542,0.3573,0.3653,0.3511,0.3406,0.3344,0.3585,0.3445,0.3468,0.3498,0.3378,0.3198,0.3115,0.3119,0.3123,0.3126,0.3129,0,0.2835,0.2868,0.2895,0.2917,0.2928,0.3031,0.3068,0.2992,0.2983,0.3098,0.3166,0.2924,0.2844,0.2929,0.2709,0.2682,0.2666,0.2595,0.2561,0.2628,0.2687,0.2525,0.2036,0.2033,0.2029,0.2026,0,0,0.281,0.2802,0.2811,0.2789,0.2831,0.278,0.2755,0.2653,0.2649,0.2543,0.2547,0.274,0.2855,0.2418,0.2351,0.2163,0.2384,0.2081,0.2964,0.2994,0.3048,0.3187,0.3013,0,0,0,0,0]},{"header":{"parameterUnit":"m.s-1","parameterCategory":2,"la1":30.2991,"la2":30.254,"lo1":-89.0895,"lo2":-89.0444,"dy":0.0017,"dx":0.0017,"nx":28,"ny":28,"refTime":"2025-07-20T21:00:00:Z","depth":"2","parameterNumber":3,"parameterNumberName":"V-component_of_CURRENTS"},"data":[0,0,0,0,0,0,0,0,0,0,0,0,0,0,0,0,0,0,0,0,0,0,0,0,0,0,0,0,0,0,0,0,0,0,0,0,0,0,0,0,0,0,0,0,0,0,0,0,0,0,0,0,0,0,0,0,0,0,0.0152,0.0151,0,0.0092,0.0092,0.0091,0.005,0.005,0.0049,0.0049,-0.0018,-0.0019,-0.0021,0,0,0,0,0,0,0,0,0,0,0,0,0,0.0187,0.0187,0.0152,0.0151,0.0151,0.0093,0.0092,0.0091,0.005,0.005,0.0049,0.0049,-0.0017,-0.0019,-0.0021,0,0,0,0,0,0,0,0,0,0,0,0,0,0.0152,0.0187,0.0152,0.0125,0.0122,0.0093,0.0091,0.009,0.005,0.005,0.0049,0.0049,-0.0016,-0.0019,-0.0021,-0.0033,0,0,-0.0029,-0.003,0,0,0,0,0,0,0,0,0.0154,0.0151,0.0129,0.0127,0.0123,0.008,0.0079,0.0049,0.005,0.0075,0.0049,0.0049,0.0016,0.0011,-0.0003,-0.0036,-0.0039,-0.0029,-0.0031,-0.0032,-0.0032,0,0,0,0,0,0,0,0.0157,0.0153,0.0126,0.0129,0.0125,0.0101,0.0096,0.0073,0.0046,0.0073,0.007,0.0067,0.0014,-0.0,-0.0005,-0.004,-0.0029,-0.0031,-0.0033,-0.0034,-0.0085,-0.0085,0,0,0,0,0,0,0.0171,0.0156,0.0128,0.0125,0.0141,0.0101,0.0095,0.0092,0.0046,0.0039,0.0067,0.0065,0.0004,-0.0002,-0.0007,-0.0013,-0.0032,-0.0034,-0.0035,-0.0085,-0.0085,-0.0084,0,0,0,0,0,0,0.0172,0.0169,0.0131,0.014,0.0134,0.0101,0.0098,0.0091,0.0081,0.0042,0.0035,0.0064,0.0004,-0.0004,-0.0029,-0.0017,-0.0035,-0.0037,-0.0085,-0.0085,-0.0085,-0.0033,0,0,0,0,0,0,0.0173,0.017,0.0174,0.0141,0.0134,0.0122,0.0098,0.0091,0.008,0.0077,0.0037,0.003,0.0003,-0.0025,-0.0031,-0.002,-0.0039,-0.0085,-0.0085,-0.0085,-0.0035,-0.0031,-0.0027,0,0,0,0,0,0.0175,0.0188,0.0174,0.0171,0.014,0.0122,0.0116,0.0091,0.0081,0.008,0.0047,0.0032,-0.0028,-0.0027,-0.0035,-0.0024,-0.0085,-0.0085,-0.0085,-0.0036,-0.0031,-0.0027,0,0,0,0,0,0,0.0208,0.0184,0.0168,0.0174,0.0152,0.0116,0.0117,0.0097,0.007,0.007,0.0029,0.002,0.0001,-0.0019,-0.0018,-0.0039,-0.0057,-0.0058,-0.0017,-0.0013,-0.001,0.0024,-0.0041,0,0,0,0,0,0.0217,0.022,0.0188,0.0194,0.0185,0.0151,0.0142,0.0125,0.0097,0.0085,0.0055,0.0024,-0.0004,-0.0014,-0.0043,-0.0053,-0.0064,-0.005,-0.0047,-0.0043,-0.0021,-0.001,-0.0003,-0.0083,-0.0083,-0.0083,0,0,0.0229,0.022,0.0219,0.0201,0.0182,0.018,0.0145,0.0139,0.0139,0.0083,0.0074,0.0034,-0.0006,-0.0022,-0.003,-0.0036,-0.0036,-0.0043,-0.004,-0.0019,-0.0009,-0.0001,0.0007,-0.0083,-0.0083,-0.0083,0,0,0.0267,0.0249,0.0266,0.0251,0.0233,0.021,0.0212,0.0178,0.0165,0.0146,0.0105,0.0077,0.0035,0.0011,-0.0008,0.0001,-0.0021,-0.0011,0.004,0.005,0.0058,0.0064,0.0021,0.0024,-0.0004,-0.0004,-0.0004,0,0.0285,0.0297,0.0267,0.028,0.0277,0.0228,0.0244,0.0221,0.0183,0.0183,0.0154,0.01,0.0056,0.0046,0.0039,0.0013,-0.0,0.0027,0.0058,0.0064,0.007,0.0025,0.0027,-0.0001,-0.0002,-0.0002,-0.0002,0,0.0331,0.0338,0.0348,0.0345,0.0339,0.0342,0.031,0.0297,0.0272,0.0253,0.0236,0.0172,0.0147,0.0119,0.0077,0.0094,0.0061,0.0058,0.0053,0.0082,0.003,0.0032,0.0002,0.0001,0.0001,-0.0,0,0,0.0375,0.0379,0.0383,0.04,0.0374,0.0381,0.0375,0.0366,0.0385,0.0334,0.0363,0.0282,0.0254,0.0231,0.0176,0.0172,0.0168,0.0137,0.0136,0.0104,0.0159,0.011,0.0106,0.018,0.0181,0.0182,0.0092,0,0.0417,0.0462,0.0448,0.0487,0.0504,0.0465,0.0474,0.0462,0.0439,0.0453,0.0396,0.0395,0.0296,0.0291,0.0268,0.0217,0.0181,0.0191,0.0127,0.0125,0.0088,0.0111,0.0137,0.0059,0.0093,0.0093,0.0093,0,0.0467,0.0491,0.0535,0.0571,0.0577,0.0589,0.0605,0.0613,0.0606,0.06,0.0578,0.0532,0.0503,0.0428,0.0341,0.0356,0.0255,0.0198,0.0194,0.0142,0.0082,0.0042,0.0059,0.0095,0.0095,0.0095,0.0095,0,0.052,0.0559,0.06,0.0606,0.0626,0.0645,0.0661,0.0658,0.0699,0.0704,0.0736,0.0677,0.0687,0.0571,0.0418,0.0391,0.0333,0.0282,0.0125,0.0117,0.0126,0.0118,0.0211,0.0211,0.0211,0.0211,0.0212,0,0.0568,0.0607,0.0631,0.0651,0.0728,0.0719,0.0801,0.0799,0.0841,0.0932,0.0825,0.0874,0.0734,0.0665,0.0487,0.0322,0.0378,0.0142,0.0109,0.0136,0.0131,0.0162,0.0158,0.0208,0.0209,0.0209,0.021,0,0.061,0.0623,0.0686,0.0726,0.0753,0.0812,0.0912,0.0978,0.0985,0.1101,0.1116,0.1067,0.0974,0.0779,0.0622,0.0436,0.0266,0.0176,0.0188,0.0159,0.0008,0.0007,-0.001,-0.0012,-0.0014,-0.0015,-0.0016,0,0.0632,0.0664,0.0747,0.0813,0.0834,0.0929,0.1008,0.1056,0.1151,0.1221,0.1301,0.1229,0.1196,0.0907,0.0602,0.0284,0.0248,0.0084,0.0029,0.0025,-0.0006,-0.0004,-0.0003,0.0033,0.0032,0.0032,0.0031,0,0.0676,0.0703,0.0754,0.0889,0.0989,0.112,0.1241,0.1347,0.1433,0.1496,0.159,0.1556,0.1272,0.0983,0.0543,0.0323,0.0139,0.0058,0.0103,0.0086,0.0059,0.0031,0.0032,0.0026,0.0027,0.0027,0.0027,0.0027,0.0714,0.0763,0.0846,0.098,0.1111,0.1297,0.1427,0.1564,0.1718,0.1818,0.1796,0.1722,0.1392,0.0816,0.0459,0.0081,0.0077,-0.0067,-0.0062,-0.0057,-0.0034,-0.0061,-0.0117,-0.0117,-0.0118,-0.0118,-0.0118,0,0.0767,0.0826,0.0942,0.1109,0.1263,0.133,0.1573,0.1688,0.1877,0.1934,0.1958,0.1607,0.1256,0.0868,0.0296,-0.0054,-0.0069,-0.0155,-0.0091,-0.0084,-0.0078,-0.0053,-0.0144,-0.0145,-0.0145,-0.0146,0,0,0.0804,0.0906,0.0962,0.1207,0.1334,0.1549,0.17,0.1853,0.1948,0.1978,0.192,0.181,0.136,0.0943,0.0487,0.0176,0.0124,0.0111,0.0165,0.03,0.0311,0.0002,0.005,0,0,0,0,0]}],[{"header":{"parameterUnit":"m.s-1","parameterCategory":2,"la1":30.2991,"la2":30.254,"lo1":-89.0895,"lo2":-89.0444,"dy":0.0017,"dx":0.0017,"nx":28,"ny":28,"refTime":"2025-07-20T21:00:00:Z","depth":"4","parameterNumber":2,"parameterNumberName":"U-component_of_CURRENTS"},"data":[0,0,0,0,0,0,0,0,0,0,0,0,0,0,0,0,0,0,0,0,0,0,0,0,0,0,0,0,0,0,0,0,0,0,0,0,0,0,0,0,0,0,0,0,0,0,0,0,0,0,0,0,0,0,0,0,0,0,0.1547,0.1548,0,0.1637,0.1637,0.1638,0.1686,0.1686,0.1686,0.1687,0.1742,0.1743,0.1744,0,0,0,0,0,0,0,0,0,0,0,0,0,0.1454,0.1455,0.1547,0.1549,0.155,0.1636,0.1637,0.1639,0.1686,0.1686,0.1686,0.1687,0.1741,0.1743,0.1744,0,0,0,0,0,0,0,0,0,0,0,0,0,0.1512,0.1455,0.1547,0.1585,0.1589,0.1636,0.1638,0.1639,0.1686,0.1686,0.1686,0.1687,0.1741,0.1743,0.1745,0.1751,0,0,0.175,0.1751,0,0,0,0,0,0,0,0,0.1509,0.1516,0.1578,0.1582,0.1587,0.1651,0.1625,0.1675,0.1686,0.1648,0.1687,0.1687,0.1709,0.1713,0.1728,0.1753,0.1755,0.1751,0.1752,0.1753,0.1753,0,0,0,0,0,0,0,0.1505,0.1512,0.1581,0.1579,0.1585,0.1609,0.1618,0.1635,0.1674,0.1651,0.1655,0.1667,0.1711,0.1726,0.173,0.1756,0.1751,0.1752,0.1753,0.1754,0.1865,0.1867,0,0,0,0,0,0,0.1494,0.1508,0.1579,0.1584,0.1549,0.1611,0.162,0.163,0.1675,0.1683,0.1666,0.1669,0.1723,0.1728,0.1732,0.1811,0.1753,0.1754,0.1756,0.1864,0.1866,0.1868,0,0,0,0,0,0,0.1492,0.1499,0.1575,0.1549,0.1561,0.1612,0.1622,0.1631,0.1683,0.1687,0.1694,0.1714,0.1723,0.1729,0.1767,0.181,0.1755,0.1757,0.1862,0.1864,0.1867,0.1923,0,0,0,0,0,0,0.1489,0.1498,0.1521,0.1548,0.1562,0.1623,0.1623,0.1633,0.1688,0.1693,0.1729,0.1732,0.1724,0.1764,0.1768,0.1812,0.1759,0.1859,0.1863,0.1866,0.1919,0.1927,0.1934,0,0,0,0,0,0.1485,0.15,0.1522,0.1532,0.1585,0.1624,0.1634,0.167,0.169,0.1718,0.1736,0.1733,0.1789,0.1766,0.1772,0.1817,0.1858,0.1862,0.1866,0.1915,0.1926,0.1934,0,0,0,0,0,0,0.147,0.1507,0.1531,0.1559,0.1603,0.1633,0.1668,0.1694,0.1734,0.1751,0.1749,0.1754,0.1806,0.1804,0.1779,0.186,0.1826,0.1832,0.1862,0.1872,0.188,0.1892,0.176,0,0,0,0,0,0.1479,0.1504,0.1544,0.1574,0.1599,0.1645,0.1675,0.1705,0.1735,0.1756,0.1775,0.18,0.1822,0.1841,0.1858,0.1899,0.1914,0.1935,0.1943,0.1949,0.1964,0.2036,0.2051,0.1881,0.1881,0.1881,0,0,0.1486,0.1508,0.1527,0.1574,0.1614,0.1648,0.1664,0.1724,0.1757,0.1754,0.181,0.1831,0.184,0.1883,0.1908,0.189,0.2001,0.1954,0.196,0.1971,0.2042,0.2058,0.2073,0.1884,0.1883,0.1883,0,0,0.1497,0.1533,0.1559,0.1593,0.1658,0.1682,0.1708,0.1764,0.1802,0.1856,0.1861,0.1909,0.1944,0.1958,0.1967,0.2033,0.2041,0.2047,0.2097,0.2166,0.2181,0.2194,0.2214,0.2229,0.205,0.205,0.205,0,0.1509,0.1537,0.1576,0.1606,0.1634,0.1698,0.1731,0.1777,0.1839,0.1869,0.1885,0.1968,0.198,0.2029,0.2054,0.2052,0.208,0.2057,0.2177,0.2191,0.2203,0.2221,0.2236,0.2053,0.2053,0.2052,0.2052,0,0.1532,0.1565,0.1584,0.1636,0.1673,0.1717,0.1773,0.1826,0.1881,0.1924,0.2011,0.2045,0.2099,0.2112,0.2105,0.2199,0.2184,0.2179,0.2152,0.2224,0.2237,0.2252,0.2058,0.2057,0.2056,0.2055,0,0,0.1526,0.1588,0.16,0.1616,0.1694,0.1715,0.1782,0.1848,0.1902,0.1988,0.2061,0.2125,0.218,0.2196,0.2214,0.2272,0.2377,0.2274,0.2276,0.2291,0.2511,0.2327,0.2325,0.2405,0.2408,0.2411,0.2477,0,0.1538,0.1577,0.1613,0.1652,0.1673,0.1736,0.1785,0.1858,0.1938,0.2026,0.2107,0.2185,0.2202,0.225,0.2323,0.2375,0.2424,0.2358,0.2442,0.2444,0.227,0.2339,0.2422,0.2488,0.2491,0.2494,0.2495,0,0.1546,0.1565,0.1607,0.1643,0.1663,0.1702,0.1786,0.1842,0.1974,0.2049,0.2167,0.2238,0.2359,0.236,0.251,0.2476,0.2507,0.2531,0.2534,0.2356,0.2288,0.2407,0.2522,0.252,0.2518,0.2516,0.2515,0,0.15,0.1551,0.1576,0.1594,0.1661,0.1695,0.1741,0.1856,0.1919,0.208,0.2163,0.2312,0.242,0.2503,0.2582,0.2569,0.272,0.2699,0.2548,0.2534,0.2655,0.264,0.2789,0.2789,0.2789,0.2789,0.2789,0,0.1468,0.1486,0.1559,0.1571,0.16,0.1665,0.1738,0.1809,0.1949,0.2032,0.2186,0.2283,0.2474,0.2579,0.2617,0.2632,0.2758,0.2569,0.2551,0.2671,0.2659,0.2663,0.2648,0.2791,0.2791,0.279,0.279,0,0.1398,0.1459,0.1481,0.1556,0.1581,0.1603,0.1713,0.1768,0.1916,0.2036,0.2095,0.2314,0.246,0.258,0.2721,0.2663,0.2684,0.2642,0.2749,0.2734,0.2438,0.2425,0.249,0.2484,0.2479,0.2475,0.2472,0,0.1343,0.1358,0.1454,0.1471,0.1506,0.1561,0.1608,0.1742,0.1809,0.2025,0.2072,0.2275,0.2402,0.2474,0.2593,0.2637,0.2605,0.2573,0.2519,0.2437,0.2415,0.2409,0.2403,0.2464,0.2463,0.2462,0.246,0,0.1228,0.1304,0.1348,0.14,0.1444,0.1465,0.1543,0.1583,0.1747,0.1899,0.2029,0.2114,0.2273,0.2395,0.2444,0.2461,0.2576,0.2522,0.2532,0.2481,0.2407,0.2388,0.2387,0.2444,0.2446,0.2448,0.2449,0,0.1165,0.1179,0.1275,0.131,0.1361,0.1358,0.1403,0.1491,0.1578,0.1821,0.186,0.2074,0.2267,0.23,0.2336,0.2353,0.2323,0.223,0.2255,0.2274,0.217,0.2043,0.1964,0,0,0,0,0,0.1089,0.1119,0.1154,0.1196,0.1245,0.1275,0.136,0.142,0.1592,0.1643,0.175,0.1881,0.1988,0.2096,0.2075,0.2207,0.2303,0.2164,0.2202,0.2351,0.237,0.2266,0,0,0,0,0,0,0.1045,0.1092,0.1137,0.1107,0.1115,0.1139,0.1198,0.1295,0.134,0.1534,0.1629,0.1757,0.1913,0.2012,0.2049,0.2071,0.2047,0.2286,0.228,0.234,0.2358,0.2373,0.2272,0,0,0,0,0]},{"header":{"parameterUnit":"m.s-1","parameterCategory":2,"la1":30.2991,"la2":30.254,"lo1":-89.0895,"lo2":-89.0444,"dy":0.0017,"dx":0.0017,"nx":28,"ny":28,"refTime":"2025-07-20T21:00:00:Z","depth":"4","parameterNumber":3,"parameterNumberName":"V-component_of_CURRENTS"},"data":[0,0,0,0,0,0,0,0,0,0,0,0,0,0,0,0,0,0,0,0,0,0,0,0,0,0,0,0,0,0,0,0,0,0,0,0,0,0,0,0,0,0,0,0,0,0,0,0,0,0,0,0,0,0,0,0,0,0,0.0121,0.0121,0,0.0079,0.0078,0.0078,0.0053,0.0053,0.0054,0.0054,0.0014,0.0013,0.0012,0,0,0,0,0,0,0,0,0,0,0,0,0,0.0135,0.0135,0.0121,0.0121,0.012,0.0079,0.0078,0.0077,0.0053,0.0053,0.0054,0.0054,0.0015,0.0013,0.0012,0,0,0,0,0,0,0,0,0,0,0,0,0,0.0112,0.0135,0.0121,0.0105,0.0103,0.0079,0.0078,0.0077,0.0053,0.0053,0.0054,0.0054,0.0015,0.0013,0.0012,-0.0002,0,0,0.0007,0.0006,0,0,0,0,0,0,0,0,0.0114,0.0112,0.0108,0.0106,0.0104,0.0073,0.0069,0.0052,0.0053,0.007,0.0054,0.0054,0.0036,0.0032,0.0021,-0.0004,-0.0005,0.0006,0.0005,0.0005,0.0004,0,0,0,0,0,0,0,0.0115,0.0113,0.0102,0.0107,0.0105,0.0084,0.0081,0.0065,0.0051,0.0069,0.0067,0.0066,0.0034,0.0023,0.002,-0.0006,0.0006,0.0005,0.0004,0.0003,-0.0036,-0.0036,0,0,0,0,0,0,0.0127,0.0115,0.0104,0.0101,0.0112,0.0084,0.0081,0.0081,0.0051,0.0047,0.0066,0.0065,0.0025,0.0022,0.0018,0.0015,0.0005,0.0003,0.0002,-0.0036,-0.0036,-0.0036,0,0,0,0,0,0,0.0127,0.0126,0.0105,0.0108,0.0105,0.0084,0.0085,0.008,0.0073,0.0049,0.0045,0.0064,0.0025,0.0021,0.0008,0.0013,0.0002,0.0001,-0.0036,-0.0036,-0.0036,0.0,0,0,0,0,0,0,0.0128,0.0127,0.0131,0.0109,0.0105,0.0099,0.0085,0.008,0.0073,0.0071,0.0046,0.0042,0.0025,0.001,0.0006,0.0011,-0.0001,-0.0036,-0.0036,-0.0036,-0.0001,0.0001,0.0003,0,0,0,0,0,0.0129,0.0137,0.0132,0.013,0.0112,0.01,0.0095,0.0079,0.0073,0.0073,0.0054,0.0043,0.0007,0.0009,0.0004,0.0008,-0.0036,-0.0036,-0.0036,-0.0002,0.0001,0.0003,0,0,0,0,0,0,0.0146,0.0135,0.0129,0.0134,0.0121,0.0097,0.0095,0.0083,0.0067,0.0068,0.0042,0.0037,0.0025,0.0011,0.0014,-0.0004,-0.0016,-0.0017,0.0012,0.0014,0.0016,0.0031,-0.0002,0,0,0,0,0,0.0153,0.0158,0.0139,0.0145,0.0139,0.0118,0.0111,0.0101,0.0084,0.0077,0.0059,0.0039,0.0019,0.0014,-0.0007,-0.0014,-0.0041,-0.0015,-0.0012,-0.001,-0.0003,-0.0043,-0.0044,-0.0037,-0.0037,-0.0037,0,0,0.0162,0.0157,0.016,0.015,0.0137,0.0138,0.0114,0.0109,0.0111,0.0076,0.0072,0.0044,0.0017,0.0006,0.0,-0.0002,-0.0029,-0.001,-0.0008,-0.0002,-0.0043,-0.0044,-0.0044,-0.0037,-0.0037,-0.0037,0,0,0.0187,0.0178,0.019,0.0182,0.0171,0.0157,0.0159,0.0137,0.0127,0.0117,0.009,0.0067,0.0043,0.0022,0.0009,0.0011,-0.0019,0.0007,0.0035,-0.0004,-0.0005,-0.0006,-0.0049,-0.0054,0.0013,0.0013,0.0013,0,0.02,0.0213,0.0191,0.02,0.0201,0.017,0.0184,0.0166,0.0144,0.0138,0.0124,0.0075,0.005,0.0032,0.0033,0.0017,-0.0011,0.0028,-0.0001,-0.0002,-0.0004,-0.0048,-0.0054,0.0015,0.0014,0.0014,0.0014,0,0.0229,0.0241,0.0247,0.025,0.0247,0.0253,0.023,0.0222,0.0204,0.0186,0.016,0.0115,0.0091,0.0073,0.0055,0.0034,0.0015,0.0003,-0.0005,-0.0002,-0.0049,-0.0056,0.0017,0.0016,0.0016,0.0016,0,0,0.0255,0.0268,0.027,0.0287,0.0276,0.028,0.0277,0.0268,0.0273,0.0231,0.0229,0.0176,0.0149,0.0131,0.0096,0.006,0.0018,0.0034,0.0032,-0.0004,-0.0072,-0.0069,-0.0077,0.0001,0.0,-0.0,-0.0102,0,0.0286,0.0322,0.0317,0.0352,0.0368,0.0344,0.035,0.0336,0.0313,0.03,0.0239,0.0222,0.0172,0.0163,0.0116,0.0047,0.0003,0.0047,-0.0073,-0.0077,-0.0071,-0.0084,-0.0003,-0.0108,-0.0109,-0.0111,-0.0111,0,0.0314,0.0338,0.0381,0.0412,0.0417,0.0432,0.0439,0.0443,0.0409,0.0392,0.035,0.03,0.0241,0.0201,0.0071,0.0102,0.0022,-0.0042,-0.0048,-0.0059,-0.0086,-0.0111,-0.0125,-0.0124,-0.0123,-0.0122,-0.0121,0,0.0344,0.0383,0.0425,0.0433,0.0458,0.0474,0.0488,0.0472,0.0492,0.0454,0.0458,0.0364,0.0335,0.0213,0.0073,0.0075,-0.0075,-0.009,-0.017,-0.0172,-0.016,-0.0158,-0.0184,-0.0184,-0.0184,-0.0183,-0.0183,0,0.0374,0.0408,0.0447,0.0468,0.0526,0.0525,0.058,0.0569,0.0578,0.0606,0.0517,0.0504,0.034,0.023,0.009,-0.0062,-0.0068,-0.0168,-0.0196,-0.0144,-0.0138,-0.0166,-0.0162,-0.0187,-0.0186,-0.0185,-0.0185,0,0.0392,0.0418,0.0473,0.0519,0.0543,0.0585,0.066,0.0697,0.0691,0.0722,0.0717,0.0617,0.0474,0.029,0.0093,-0.002,-0.0181,-0.0236,-0.0171,-0.0194,-0.0257,-0.025,-0.0328,-0.0329,-0.033,-0.033,-0.0331,0,0.0402,0.0434,0.0512,0.0563,0.059,0.0663,0.072,0.0751,0.0796,0.0784,0.08,0.068,0.0586,0.0311,0.0109,-0.0162,-0.0199,-0.0286,-0.027,-0.0251,-0.0271,-0.0264,-0.0256,-0.0332,-0.0332,-0.0332,-0.0332,0,0.0426,0.0456,0.05,0.06,0.0678,0.0772,0.085,0.0894,0.0925,0.0922,0.0873,0.0721,0.0562,0.0329,0.0119,-0.008,-0.0232,-0.0293,-0.0293,-0.0278,-0.0256,-0.0273,-0.0266,-0.0334,-0.0334,-0.0334,-0.0334,0,0.0444,0.048,0.0547,0.0636,0.0739,0.0842,0.0888,0.0942,0.0986,0.0968,0.0945,0.0759,0.0653,0.0371,0.0169,-0.0019,-0.0063,-0.0125,-0.0134,-0.0134,-0.005,0.0008,-0.0013,0,0,0,0,0,0.0461,0.0506,0.0584,0.0682,0.0783,0.0848,0.0957,0.0997,0.1026,0.1008,0.0984,0.0828,0.0543,0.0414,0.023,0.0147,-0.0106,-0.0077,-0.0184,-0.0346,-0.0343,-0.0278,0,0,0,0,0,0,0.0474,0.0542,0.0578,0.0705,0.0778,0.0898,0.0974,0.1001,0.0996,0.0988,0.0845,0.077,0.0496,0.0643,0.0219,0.0161,0.0066,-0.0211,-0.0215,-0.0347,-0.0345,-0.0343,-0.0275,0,0,0,0,0]}]]